Sault Ste Marie, MI

11:18 AM EDT on June 28, 2017 (GMT -0400)
Sault Ste Marie Municipal / Sanderson Field

Weather History for KANJ - June, 2014

Change the Weather History Date:

Saturday, June 7, 2014

  Actual Average Record
Temperature  
Mean Temperature 64 °F 58 °F  
Max Temperature 80 °F 69 °F 92 °F (1925)
Min Temperature 48 °F 47 °F 32 °F (1977)
Degree Days  
Heating Degree Days 1 8  
Month to date heating degree days 39 59  
Since 1 June heating degree days 39 59  
Since 1 July heating degree days 9656 8542  
Cooling Degree Days 0 0  
Month to date cooling degree days 1 0  
Year to date cooling degree days 3 5  
Since 1 June cooling degree days 1 0  
Growing Degree Days 14 (Base 50)    
Moisture  
Dew Point 49 °F    
Average Humidity 63    
Maximum Humidity 86    
Minimum Humidity 39    
Precipitation  
Precipitation 0.00 in 0.09 in 1.25 in (1939)
Month to date precipitation 0.58 0.63  
Year to date precipitation 12.62 11.07  
Sea Level Pressure  
Sea Level Pressure 29.95 in    
Wind  
Wind Speed 6 mph (SW)    
Max Wind Speed 18 mph    
Max Gust Speed 22 mph    
Visibility 10 miles    
Events      
T = Trace of Precipitation, MM = Missing Value Source: NWS Daily Summary

Daily Weather History Graph

Daily Weather History Graph

Search for Another Location

Airport or City:

Trip Planner

Search our weather history database for the weather conditions in past years. The results will help you decide how hot, cold, wet, or windy it might be!

Date:

Astronomy

Jun. 07, 2014 Rise Set
Actual Time 5:45 AM EDT 9:27 PM EDT
Civil Twilight 5:07 AM EDT 10:06 PM EDT
Nautical Twilight 4:15 AM EDT 10:58 PM EDT
Astronomical Twilight 3:03 AM EDT 12:10 AM EDT
Moon 3:25 PM EDT (6/7) 2:27 AM EDT (6/7)
Length of Visible Light 16h 59m
Length of Day
15h 41m
Waxing Gibbous, 67% of the Moon is Illuminated
Jun 7
Waxing Gibbous
Jun 13
Full
Jun 19
Last Quarter
Jun 27
New
Jul 5
First Quarter

Hourly Weather History & Observations

Time (EDT) Temp. Dew Point Humidity Pressure Visibility Wind Dir Wind Speed Gust Speed Precip Events Conditions
12:55 AM 57.9 °F 48.0 °F 70% 29.98 in 10.0 mi Calm Calm - N/A   Clear
1:55 AM 55.9 °F 48.9 °F 77% 29.98 in 10.0 mi Calm Calm - N/A   Clear
2:55 AM 54.0 °F 48.0 °F 80% 29.99 in 10.0 mi Calm Calm - N/A   Clear
3:55 AM 52.0 °F 46.9 °F 83% 29.99 in 10.0 mi Calm Calm - N/A   Clear
4:55 AM 51.1 °F 46.9 °F 86% 29.99 in 10.0 mi Calm Calm - N/A   Clear
5:55 AM 50.0 °F 46.9 °F 89% 29.97 in 10.0 mi East 3.5 mph - N/A   Clear
6:55 AM 54.0 °F 48.9 °F 83% 30.02 in 10.0 mi Calm Calm - N/A   Clear
10:55 AM 68.0 °F 52.0 °F 56% 29.98 in 10.0 mi SE 5.8 mph - N/A   Clear
11:55 AM 73.0 °F 54.0 °F 51% 29.97 in 10.0 mi SSE 8.1 mph - N/A   Clear
12:55 PM 77.0 °F 55.0 °F 47% 29.96 in 10.0 mi South 6.9 mph 17.3 mph N/A   Clear
1:55 PM 78.1 °F 53.1 °F 42% 29.94 in 10.0 mi SSW 12.7 mph - N/A   Mostly Cloudy
2:55 PM 79.0 °F 53.1 °F 40% 29.92 in 10.0 mi SSW 13.8 mph - N/A   Scattered Clouds
3:55 PM 78.1 °F 53.1 °F 42% 29.91 in 10.0 mi SSW 12.7 mph 21.9 mph N/A   Clear
4:55 PM 78.1 °F 52.0 °F 40% 29.89 in 10.0 mi SSW 11.5 mph - N/A   Partly Cloudy
5:55 PM 69.1 °F 53.1 °F 57% 29.92 in 10.0 mi NW 12.7 mph - N/A   Clear
6:55 PM 62.1 °F 50.0 °F 65% 29.93 in 10.0 mi NW 4.6 mph - N/A   Scattered Clouds
7:55 PM 60.1 °F 50.0 °F 69% 29.93 in 10.0 mi SW 4.6 mph - N/A   Clear
8:55 PM 50.0 °F 44.1 °F 80% 29.94 in 10.0 mi WSW 6.9 mph - N/A   Scattered Clouds
9:55 PM 50.0 °F 45.0 °F 83% 29.94 in 10.0 mi West 4.6 mph - N/A   Mostly Cloudy
10:55 PM 51.1 °F 45.0 °F 80% 29.94 in 10.0 mi WNW 8.1 mph - N/A   Mostly Cloudy
11:55 PM 48.9 °F 44.1 °F 83% 29.93 in 10.0 mi NW 6.9 mph - N/A   Mostly Cloudy